{"data":{"norad_id":66117,"intl_designator":"2025-237D","name":"STARLINK-35572","alt_names":[],"object_type":"PAYLOAD","status":"ACTIVE","operator":null,"country":"US","launch_date":"2025-10-22","launch_site_code":"AFWTR","launch_vehicle":null,"mission":null,"orbit_class":"UNKNOWN","rcs_meters":null,"size_class":null,"mass_kg":null,"dimensions":null,"purposes":["comms"],"wikipedia_slug":null,"has_3d_model":false,"image_url":null,"decayed_at":null,"tle_current":{"epoch":"2026-05-25T03:16:21.974880Z","epoch_age_seconds":64057,"freshness":"FRESH","line1":"1 66117U 25237D   26145.13636545  .00019174  00000+0  65778-3 0  9998","line2":"2 66117  53.1583  44.6229 0001177  79.3083 280.8050 15.30201610 34314","mean_motion":15.3020161,"eccentricity":0.0001177,"inclination_deg":53.1583,"raan_deg":44.6229,"arg_perigee_deg":79.3083,"mean_anomaly_deg":280.805,"bstar":0.00065778,"rev_number":3431,"period_min":94.105246693604,"perigee_km":474.40362328098,"apogee_km":476.01690122651,"semimajor_km":6853.3472622537,"source":"CELESTRAK","updated_at":"2026-05-25T13:38:21.061803Z"}}}